User: anonymous   Login
Location: Unspecified
(0.0000°N, 0.0000°E)
Time: 10:09:48
(UTC+00:00)
Language:

DEORBITSAIL - Orbit

View from above orbital plane
View from above orbital plane
View from above satellite
View from above satellite

Ground track
Ground track

The orbit data is extracted from the following two-line orbital elements,

1 40719U 15032E   18017.25032532 +.00000384 +00000-0 +62676-4 0  9997
2 40719 097.9611 273.0831 0016438 169.8642 190.2903 14.76306143135905
Epoch (UTC): 17 January 2018 06:00:28
Eccentricity: 0.0016438
inclination: 97.9611°
perigee height: 629 km
apogee height: 652 km
right ascension of ascending node: 273.0831°
argument of perigee: 169.8642°
revolutions per day: 14.76306143
mean anomaly at epoch: 190.2903°
orbit number at epoch: 13590

The dashed part of the orbit path shows where the satellite is in the earth's shadow,  

DLR